Weather History for Lumberton, NC

Change the Weather History Date:

Friday, July 13, 2012

  Actual Average Record
Temperature  
Mean Temperature 80 °F 81 °F  
Max Temperature 87 °F 91 °F 101 °F (2011)
Min Temperature 73 °F 71 °F 62 °F (2001)
Degree Days  
Heating Degree Days 0 0  
Month to date heating degree days 0 0  
Since 1 June heating degree days 0 0  
Since 1 July heating degree days 0 0  
Cooling Degree Days 15 16  
Month to date cooling degree days 245 208  
Year to date cooling degree days 971 846  
Since 1 June cooling degree days 565 596  
Growing Degree Days 30 (Base 50)    
Moisture  
Dew Point 74 °F    
Average Humidity 85    
Maximum Humidity 100    
Minimum Humidity 70    
Precipitation  
Precipitation 0.32 in 0.18 in 2.43 in (2000)
Month to date precipitation 4.01 1.91  
Year to date precipitation 26.11 21.32  
Sea Level Pressure  
Sea Level Pressure 30.16 in    
Wind  
Wind Speed 4 mph (East)    
Max Wind Speed 16 mph    
Max Gust Speed 21 mph    
Visibility 6 miles    
Events Rain , Thunderstorm    
T = Trace of Precipitation, MM = Missing Value Source: NWS Daily Summary

Daily Weather History Graph

Daily Weather History Graph

Search for Another Location

Airport:

Trip Planner

Search our weather history database for the weather conditions in past years. The results will help you decide how hot, cold, wet, or windy it might be!

Date:

Astronomy

Jul. 13, 2012 Rise Set
Actual Time 6:13 AM EDT 8:30 PM EDT
Civil Twilight 5:44 AM EDT 8:59 PM EDT
Nautical Twilight 5:09 AM EDT 9:34 PM EDT
Astronomical Twilight 4:30 AM EDT 10:12 PM EDT
Moon 1:46 AM EDT (7/13) 3:59 PM EDT (7/13)
Length of Visible Light 15h 14m
Length of Day
14h 16m
Waning Crescent, 26% of the Moon is Illuminated
Jul 13
Waning Crescent
Jul 19
New
Jul 26
First Quarter
Aug 1
Full
Aug 9
Last Quarter

Hourly Weather History & Observations

Time (EDT) Temp. Heat Index Dew Point Humidity Pressure Visibility Wind Dir Wind Speed Gust Speed Precip Events Conditions
12:54 AM 73.9 °F - 73.0 °F 97% 30.14 in 10.0 mi Calm Calm - N/A   Clear
1:08 AM 73.4 °F - 73.4 °F 100% 30.15 in 8.0 mi Calm Calm - N/A   Scattered Clouds
1:19 AM 73.4 °F - 73.4 °F 100% 30.15 in 8.0 mi Calm Calm - N/A   Mostly Cloudy
1:50 AM 73.4 °F - 73.4 °F 100% 30.14 in 7.0 mi Calm Calm - N/A   Overcast
1:54 AM 73.9 °F - 73.0 °F 97% 30.14 in 7.0 mi Calm Calm - N/A   Overcast
2:23 AM 73.4 °F - 73.4 °F 100% 30.13 in 7.0 mi East 3.5 mph - N/A   Overcast
2:49 AM 73.4 °F - 73.4 °F 100% 30.13 in 7.0 mi East 5.8 mph - N/A   Overcast
2:54 AM 73.9 °F - 73.0 °F 97% 30.12 in 7.0 mi East 5.8 mph - N/A   Overcast
3:38 AM 73.4 °F - 73.4 °F 100% 30.13 in 4.0 mi East 5.8 mph - N/A   Overcast
3:49 AM 73.4 °F - 73.4 °F 100% 30.13 in 2.0 mi NE 4.6 mph - N/A   Overcast
3:54 AM 73.9 °F - 73.0 °F 97% 30.13 in 1.8 mi ENE 5.8 mph - N/A   Overcast
4:03 AM 73.4 °F - 73.4 °F 100% 30.13 in 1.5 mi ENE 5.8 mph - N/A   Overcast
4:29 AM 73.4 °F - 73.4 °F 100% 30.13 in 2.0 mi ENE 4.6 mph - N/A   Overcast
4:43 AM 73.4 °F - 73.4 °F 100% 30.13 in 5.0 mi ENE 5.8 mph - N/A   Overcast
4:54 AM 73.0 °F - 73.0 °F 100% 30.13 in 6.0 mi ENE 4.6 mph - N/A   Overcast
5:54 AM 73.0 °F - 72.0 °F 96% 30.14 in 6.0 mi ENE 4.6 mph - N/A   Overcast
6:01 AM 73.4 °F - 71.6 °F 94% 30.15 in 7.0 mi East 4.6 mph - N/A   Overcast
6:54 AM 73.9 °F - 73.0 °F 97% 30.15 in 4.0 mi Calm Calm - N/A   Overcast
7:12 AM 73.4 °F - 73.4 °F 100% 30.16 in 1.0 mi East 3.5 mph - N/A   Overcast
7:37 AM 73.4 °F - 73.4 °F 100% 30.16 in 1.8 mi East 3.5 mph - N/A   Overcast
7:42 AM 73.4 °F - 73.4 °F 100% 30.16 in 3.0 mi East 3.5 mph - N/A   Overcast
7:54 AM 75.0 °F - 73.9 °F 96% 30.16 in 4.0 mi ENE 3.5 mph - N/A   Overcast
8:01 AM 75.2 °F - 73.4 °F 94% 30.16 in 5.0 mi NE 4.6 mph - N/A   Overcast
8:54 AM 78.1 °F - 75.0 °F 90% 30.17 in 9.0 mi ESE 6.9 mph - N/A   Overcast
9:06 AM 78.8 °F - 75.2 °F 89% 30.18 in 9.0 mi ESE 3.5 mph - N/A   Overcast
9:41 AM 78.8 °F - 75.2 °F 89% 30.18 in 10.0 mi ESE 5.8 mph - N/A   Overcast
9:54 AM 80.1 °F 85.1 °F 75.0 °F 85% 30.18 in 10.0 mi ESE 5.8 mph - N/A   Overcast
10:19 AM 80.6 °F 86.2 °F 75.2 °F 84% 30.18 in 10.0 mi SSE 4.6 mph - N/A   Mostly Cloudy
10:42 AM 80.6 °F 86.2 °F 75.2 °F 84% 30.17 in 10.0 mi SSE 4.6 mph - N/A   Scattered Clouds
10:54 AM 82.9 °F 91.8 °F 77.0 °F 82% 30.17 in 10.0 mi SSE 5.8 mph - N/A   Scattered Clouds
11:12 AM 82.4 °F 89.5 °F 75.2 °F 79% 30.17 in 10.0 mi SSE 4.6 mph - N/A   Mostly Cloudy
11:28 AM 84.2 °F 92.3 °F 75.2 °F 74% 30.17 in 10.0 mi SE 6.9 mph - N/A   Scattered Clouds
11:54 AM 86.0 °F 95.1 °F 75.0 °F 70% 30.16 in 10.0 mi Calm Calm - N/A   Scattered Clouds
12:54 PM 86.0 °F 96.0 °F 75.9 °F 72% 30.15 in 10.0 mi Variable 4.6 mph - N/A   Mostly Cloudy
1:23 PM 75.2 °F - 73.4 °F 94% 30.17 in 1.8 mi SW 13.8 mph 20.7 mph 0.06 in Rain Heavy Rain
1:26 PM 75.2 °F - 73.4 °F 94% 30.17 in 1.0 mi SW 16.1 mph 20.7 mph 0.18 in Rain Heavy Rain
1:33 PM 75.2 °F - 73.4 °F 94% 30.17 in 0.8 mi WSW 8.1 mph 20.7 mph 0.28 in Rain Heavy Rain
1:37 PM 75.2 °F - 73.4 °F 94% 30.17 in 1.5 mi SSW 5.8 mph - 0.28 in Rain Light Rain
1:44 PM 75.2 °F - 73.4 °F 94% 30.16 in 2.5 mi SSW 6.9 mph - 0.31 in Rain Heavy Rain
1:54 PM 75.9 °F - 73.0 °F 91% 30.15 in 6.0 mi South 3.5 mph - 0.32 in Rain Light Rain
2:08 PM 75.2 °F - 73.4 °F 94% 30.16 in 10.0 mi SSE 3.5 mph - 0.00 in Thunderstorm Mostly Cloudy
2:23 PM 77.0 °F - 73.4 °F 89% 30.16 in 10.0 mi SE 3.5 mph - 0.00 in   Scattered Clouds
2:54 PM 78.1 °F - 73.9 °F 87% 30.18 in 10.0 mi NNE 3.5 mph - 0.00 in   Partly Cloudy
3:54 PM 79.0 °F - 75.9 °F 90% 30.16 in 10.0 mi ESE 5.8 mph - 0.00 in Rain Light Rain
4:54 PM 78.1 °F - 75.0 °F 90% 30.15 in 10.0 mi ENE 5.8 mph - 0.00 in   Clear
5:54 PM 78.1 °F - 75.9 °F 93% 30.14 in 10.0 mi ENE 3.5 mph - N/A   Clear
6:54 PM 78.1 °F - 75.9 °F 93% 30.13 in 10.0 mi East 5.8 mph - N/A   Clear
7:39 PM 78.8 °F - 75.2 °F 89% 30.14 in 10.0 mi East 4.6 mph - N/A   Partly Cloudy
7:54 PM 78.1 °F - 75.9 °F 93% 30.14 in 10.0 mi ENE 3.5 mph - N/A   Partly Cloudy
8:54 PM 77.0 °F - 75.0 °F 94% 30.16 in 10.0 mi Calm Calm - N/A   Clear
9:07 PM 77.0 °F - 75.2 °F 94% 30.17 in 10.0 mi ENE 3.5 mph - N/A   Scattered Clouds
9:54 PM 75.9 °F - 75.0 °F 97% 30.17 in 10.0 mi Calm Calm - N/A   Clear
10:17 PM 75.2 °F - 75.2 °F 100% 30.18 in 10.0 mi Calm Calm - N/A   Scattered Clouds
10:28 PM 75.2 °F - 75.2 °F 100% 30.18 in 9.0 mi East 3.5 mph - N/A   Mostly Cloudy
10:42 PM 75.2 °F - 75.2 °F 100% 30.18 in 6.0 mi East 3.5 mph - N/A   Overcast
10:54 PM 75.9 °F - 75.9 °F 100% 30.18 in 2.0 mi ESE 3.5 mph - N/A   Overcast
10:56 PM 75.2 °F - 75.2 °F 100% 30.19 in 1.5 mi ESE 3.5 mph - N/A   Overcast
11:03 PM 75.2 °F - 75.2 °F 100% 30.19 in 0.8 mi Calm Calm - N/A   Mist
11:51 PM 75.2 °F - 75.2 °F 100% 30.19 in 1.2 mi Calm Calm - N/A   Overcast
11:54 PM 75.9 °F - 75.9 °F 100% 30.19 in 1.5 mi Calm Calm - N/A   Overcast